SCP
-0 -0 0 0 0 0 0 0 0 0 0 -0 -0 -0 -0 -0 -0 0 0 0 0 0 0 0 0 0 0 0 0 0 0 0 0 0 0 0 0 0 0 0 0 0 0 0 0 0 0 0 0
-0 -0 0 -0 -0 -0 -0 -0 -0 -0 0 0 -0 -0 -0 -0 0 0 0 0 0 0 0 0 0 0 0 0 0 0 0 0 0 0 0 0 0 0 0 0 0 0 0 0 0 0 0 0 0
0 0 -0 -0 -0 -0 -0 -0 -0 -0 0 0 0 -0 -0 0 0 0 0 0 0 0 0 0 0 0 0 0 0 0 0 0 0 0 0 0 0 0 0 0 0 0 0 0 0 0 0 0 0
0 0 -0 -0 -0 -0 -0 -0 -0 0 0 0 0 -0 -0 0 0 0 0 0 0 0 0 0 0 0 1 1 0 0 0 0 0 0 0 0 0 0 0 0 0 0 0 0 0 0 0 0 0
0 0 0 -0 -0 -0 -0 -0 -0 0 0 0 0 0 -0 0 0 0 0 0 0 0 0 0 1 1 1 1 1 0 0 0 0 0 0 0 0 0 0 0 0 0 0 0 0 0 0 0 0
0 0 0 -0 -0 -0 -0 -0 0 0 0 0 0 0 0 0 0 0 0 0 0 0 0 1 1 1 1 1 1 1 1 0 0 0 0 0 0 0 0 0 0 0 0 0 0 0 0 0 0
0 0 0 -0 -0 -0 -0 0 0 0 0 0 0 0 0 0 0 0 0 0 0 0 0 1 1 1 1 1 1 1 1 1 0 0 0 0 0 0 0 0 0 0 0 0 0 0 0 0 0
0 0 0 -0 -0 -0 0 0 0 0 0 0 0 0 0 0 0 0 0 0 0 0 0 1 1 1 1 1 1 1 1 1 0 0 0 0 0 0 0 0 0 0 0 0 0 0 0 0 0
0 0 0 0 -0 0 0 0 0 0 0 0 0 0 0 0 0 0 0 0 0 0 0 0 0 1 1 1 1 1 1 1 0 0 0 0 0 0 0 0 0 0 0 0 0 0 0 0 0
0 0 0 0 0 0 -0 0 0 0 0 1 0 0 0 0 0 0 1 1 0 0 0 0 0 1 1 1 1 1 1 1 0 0 0 0 0 0 0 0 0 0 0 0 0 0 0 0 0
0 0 0 0 0 0 0 0 0 0 0 1 0 0 0 0 0 1 1 1 1 1 1 0 1 1 1 1 1 1 1 1 1 1 1 1 0 0 0 0 0 0 0 0 0 0 0 0 0
0 0 0 0 0 0 0 0 0 0 0 1 1 0 0 0 0 0 1 1 1 1 1 1 1 1 1 1 1 1 1 1 1 1 1 1 1 1 1 0 0 1 1 1 1 1 1 0 0
0 0 0 0 0 0 0 0 0 0 1 1 1 1 1 0 0 0 1 1 2 1 1 1 1 1 1 1 1 1 1 1 1 1 1 1 1 1 1 1 1 1 1 1 1 1 1 1 0
0 0 0 0 0 0 0 0 0 1 2 3 3 2 2 1 1 1 1 2 2 2 2 2 2 1 1 1 1 1 1 1 1 1 1 1 1 1 1 1 1 1 1 1 1 1 1 1 1
0 0 0 0 0 0 0 0 0 2 4 4 4 4 3 3 3 2 2 2 2 2 2 2 2 2 2 1 1 1 1 1 1 1 1 1 1 1 2 1 1 1 1 1 1 1 1 1 1
0 0 0 0 0 0 0 0 1 2 4 5 4 4 4 4 4 4 4 3 3 3 3 3 3 2 2 2 1 1 1 1 1 1 1 1 1 1 1 1 1 1 1 1 1 1 1 1 1
0 0 0 0 0 0 0 0 1 2 3 3 4 4 4 4 4 4 4 4 4 4 3 3 2 2 2 1 1 1 1 1 1 1 1 1 1 1 1 1 1 2 2 2 1 1 1 1 1
0 0 0 0 0 0 0 0 0 1 2 2 3 4 4 4 3 3 3 4 4 4 3 2 2 1 1 1 1 1 1 1 1 1 1 1 1 1 1 1 1 2 2 2 2 2 2 1 1
0 0 0 0 0 0 0 0 0 0 1 2 3 4 4 3 2 2 2 2 2 2 2 1 1 1 1 1 1 0 0 0 0 1 1 1 1 1 1 1 2 2 2 2 2 2 2 1 1
0 0 0 0 0 0 0 0 0 0 1 2 3 4 4 3 2 1 1 1 1 1 1 1 1 1 1 1 1 0 0 0 0 0 1 1 1 1 1 1 1 1 2 2 1 1 1 1 1
0 0 0 0 -0 -0 0 0 0 0 1 1 3 3 3 2 1 1 0 0 0 1 1 1 1 1 1 1 1 1 0 0 0 0 0 1 1 1 1 1 1 1 1 1 1 1 1 1 1
0 0 0 0 0 0 0 0 0 0 1 1 2 2 1 1 0 0 0 0 0 0 0 0 1 1 1 1 1 1 0 0 0 0 0 0 0 0 1 1 1 1 1 1 1 1 1 1 1
0 0 0 0 0 0 0 0 0 0 0 1 1 1 1 0 0 0 0 0 0 0 0 0 0 1 1 1 1 1 0 0 0 0 0 0 0 0 0 0 1 1 1 1 0 0 0 0 0
0 0 0 0 0 0 0 0 0 0 0 0 0 0 0 0 0 0 0 0 0 0 0 0 0 0 0 1 0 0 0 0 0 0 0 0 0 0 0 0 0 0 0 0 0 0 0 0 0
0 0 0 0 0 0 0 0 0 0 0 0 0 0 0 0 0 0 0 0 0 0 0 0 0 0 0 0 0 0 0 0 0 0 0 0 0 0 0 0 0 0 0 0 0 0 0 0 0
0 0 0 0 0 0 0 0 0 0 0 0 0 0 0 0 0 0 0 0 0 0 0 0 0 0 0 0 0 0 0 0 0 0 0 0 0 0 0 0 0 0 0 0 0 0 0 0 0
0 0 0 0 0 0 0 0 0 0 0 0 0 0 0 0 0 0 0 0 0 0 0 0 0 0 0 0 0 0 0 0 0 0 0 0 0 0 0 0 0 0 0 0 0 0 0 0 0
0 0 0 0 0 0 0 0 0 0 0 0 0 0 0 0 0 0 0 0 0 0 0 0 0 0 0 0 0 0 0 0 0 0 0 0 0 0 0 0 0 0 0 0 0 0 0 0 0
0 0 0 0 0 0 0 0 0 0 0 0 0 0 0 0 0 0 0 0 0 0 0 0 0 0 0 0 0 0 0 0 0 0 0 0 0 0 0 0 0 0 0 0 0 0 0 0 0
0 0 0 0 0 0 0 0 0 0 0 0 0 0 0 0 0 0 0 0 0 0 0 0 0 0 0 0 0 0 0 0 0 0 0 0 0 0 0 0 0 0 0 0 0 0 0 0 0
Wind_Speed
2 3 2 0 2 5 4 5 1 6 6 6 10 11 7 5 3 4 4 16 19 16 12 18 21 21 20 18 16 15 14 13 13 12 12 12 11 10 10 10 10 9 9 8 8 8 8 8 8
2 2 1 2 5 4 4 4 0 4 6 10 9 8 7 6 8 10 7 16 20 17 11 14 20 20 20 19 17 16 15 14 13 12 11 11 10 9 9 9 9 8 8 8 7 7 7 6 6
2 1 2 4 2 4 5 4 2 3 7 7 7 6 5 6 10 8 11 19 17 14 11 15 21 20 20 19 18 17 16 15 13 12 11 10 9 9 9 8 8 8 7 7 7 7 6 6 6
1 3 4 4 3 6 5 5 2 2 7 8 9 6 4 2 7 12 19 19 18 13 11 15 21 20 19 19 18 17 16 15 14 13 11 10 9 9 9 9 8 8 7 7 7 6 6 6 6
2 3 4 2 4 5 5 6 5 2 4 9 11 6 4 5 17 22 20 19 18 13 10 13 20 19 19 19 18 17 16 15 14 13 12 11 10 9 9 9 8 8 8 7 7 7 7 7 7
3 4 4 3 3 4 5 6 4 5 9 11 11 7 4 10 18 19 18 17 17 16 11 12 19 19 18 18 18 18 17 16 14 13 12 11 10 10 10 10 10 9 9 8 8 9 9 9 9
3 2 2 5 3 2 2 4 6 5 7 9 11 8 5 10 16 17 16 15 15 15 12 9 11 14 18 19 19 18 18 16 15 14 13 12 12 12 12 12 12 12 11 11 11 11 12 12 11
4 3 3 5 5 4 4 1 3 7 6 9 10 12 8 11 17 15 14 13 13 12 11 9 8 8 8 11 17 18 18 17 16 16 15 14 13 13 13 11 12 14 14 14 14 15 15 14 13
2 4 2 3 5 6 6 6 5 2 5 5 5 7 12 18 19 15 13 10 10 10 8 8 7 7 6 6 11 14 15 15 15 13 15 13 7 7 8 12 14 16 17 17 17 17 17 15 14
4 3 6 5 3 4 7 6 6 5 7 6 8 10 16 16 17 16 16 15 12 11 10 8 8 7 7 8 6 4 5 6 6 5 6 5 4 5 8 10 17 18 19 19 19 18 16 13 6
4 6 7 7 4 3 6 7 4 5 4 7 14 17 16 15 13 13 14 15 14 13 12 10 9 8 7 5 4 3 3 3 5 6 6 5 5 5 6 5 8 11 15 11 11 11 8 7 6
4 8 8 6 4 3 4 5 3 3 7 12 19 20 17 16 13 12 13 13 13 13 13 12 11 10 9 6 5 6 5 4 6 7 8 6 5 5 6 5 6 6 6 7 7 5 7 8 9
6 9 8 7 6 4 4 5 5 1 6 13 16 15 15 14 11 8 9 11 12 12 12 13 12 12 10 7 6 7 7 7 8 8 9 9 7 7 7 6 5 6 6 6 6 7 9 9 10
6 5 5 5 6 4 4 7 3 2 14 15 12 8 8 9 8 7 8 9 10 11 10 11 14 13 10 8 7 6 6 6 6 7 9 10 9 8 8 7 6 6 6 7 7 9 9 9 8
6 7 9 7 5 5 4 7 3 8 19 16 13 11 10 7 6 6 7 8 8 8 7 8 11 10 9 8 7 5 4 4 4 5 6 8 9 8 8 7 7 6 6 7 6 7 6 7 7
6 5 6 10 5 7 3 4 2 13 20 15 13 12 11 9 9 7 6 5 5 5 4 5 5 6 6 5 3 2 2 3 3 3 4 6 7 8 7 7 8 7 6 5 5 5 5 5 5
6 4 9 14 8 7 6 5 5 10 17 14 12 11 11 9 8 7 7 7 5 5 5 5 5 4 1 1 2 3 3 4 4 4 5 7 8 8 7 8 8 8 6 6 6 5 5 5 5
5 6 6 7 9 3 6 5 6 6 12 12 10 9 9 9 7 6 6 6 6 5 5 5 4 4 4 2 1 1 3 3 3 4 5 8 7 8 7 7 9 8 7 7 6 7 6 5 5
6 3 4 5 8 8 5 2 2 3 5 9 9 9 9 7 5 5 4 5 4 4 3 3 3 3 2 1 1 2 3 3 4 4 6 7 7 8 6 6 7 7 7 9 8 6 7 6 4
4 3 3 4 8 7 6 6 6 4 2 7 11 10 9 6 4 4 3 3 3 2 3 3 3 3 3 3 3 3 3 3 4 4 5 7 7 7 6 6 6 6 6 7 7 6 5 5 4
6 2 2 2 3 5 4 6 7 7 5 7 9 9 9 9 8 6 5 4 4 4 6 6 7 6 6 6 3 2 2 3 3 5 5 6 7 7 7 7 6 6 6 6 7 7 7 6 5
3 2 5 6 6 3 2 3 7 3 6 6 7 7 8 8 7 7 7 7 7 8 7 8 7 6 6 5 3 4 3 4 5 5 5 7 8 8 7 7 7 6 5 6 7 6 5 6 5
1 3 5 5 4 5 4 0 7 1 3 4 5 7 7 8 9 9 10 10 10 9 7 6 5 4 3 3 3 2 3 4 4 5 7 8 8 8 8 7 7 7 6 7 7 6 6 5 5
2 7 9 7 5 2 5 2 7 4 6 5 4 6 8 8 9 10 10 8 7 5 4 4 4 2 1 2 1 1 2 4 6 7 8 8 7 7 9 8 7 7 6 6 6 6 6 5 4
6 7 6 7 6 5 4 1 6 7 5 7 8 9 9 9 9 8 8 7 6 5 4 3 4 3 2 2 2 1 2 3 5 7 8 9 8 7 8 7 6 5 6 5 5 5 5 5 4
1 7 6 2 3 6 4 1 6 6 6 8 9 9 9 9 7 7 7 6 5 6 5 5 5 4 3 2 1 0 1 2 3 6 7 8 7 8 8 7 5 5 4 4 4 3 4 4 5
2 2 8 7 1 2 4 1 4 5 5 7 8 8 9 8 6 5 5 6 7 7 6 7 6 5 4 4 3 1 1 2 4 6 6 6 6 6 5 3 3 3 3 3 3 3 5 4 4
3 5 5 4 1 3 6 4 4 6 6 6 6 6 6 5 4 5 6 7 6 6 6 6 7 6 5 5 4 2 1 1 3 4 6 6 6 5 5 4 3 2 2 2 3 3 4 4 4
2 1 3 4 5 5 4 8 8 9 7 6 5 4 2 1 1 3 5 6 6 6 6 7 6 6 5 5 4 3 2 1 2 3 5 5 4 5 5 5 5 4 3 2 1 1 2 3 3
2 2 5 3 5 5 4 10 8 2 1 4 6 6 5 5 5 4 4 5 6 7 7 7 7 6 6 6 5 5 4 2 2 3 4 4 4 5 5 5 5 5 4 3 2 2 4 5 6
Wind_Direction
283 231 184 207 45 44 350 317 58 76 67 73 84 85 84 69 120 143 118 136 136 144 152 153 155 155 151 147 144 142 141 139 139 137 134 133 132 132 131 131 132 132 129 126 123 121 117 116 115
321 271 87 23 65 58 301 285 39 115 118 110 91 88 83 80 96 110 120 140 139 144 148 153 157 156 153 149 149 150 151 151 151 152 150 147 147 147 146 144 143 144 145 145 144 141 138 138 139
268 243 74 58 75 179 231 258 233 118 130 118 87 61 69 111 118 125 140 138 136 143 147 155 159 160 156 153 154 157 159 161 162 163 163 162 162 164 164 162 159 159 162 165 165 163 163 165 169
7 57 54 73 225 235 218 229 241 114 99 98 96 67 34 65 123 133 138 140 140 144 148 155 159 164 162 160 160 163 165 167 168 170 173 174 176 179 179 178 177 177 179 185 185 185 188 194 196
83 70 49 353 244 225 229 218 212 130 98 102 96 86 32 28 115 131 141 145 145 146 153 156 159 165 166 165 166 168 170 173 175 178 180 182 185 190 192 194 196 197 200 203 206 209 208 215 222
32 57 48 304 266 220 200 197 148 111 107 114 106 104 79 119 127 141 146 151 150 151 156 157 161 165 167 168 170 173 175 178 181 185 188 192 197 201 202 205 210 214 218 221 226 222 218 220 226
113 70 278 279 279 209 198 169 163 146 132 139 126 109 122 144 146 149 150 150 150 153 158 161 164 167 170 172 174 177 179 182 186 192 196 201 206 209 210 212 217 221 225 228 232 226 224 225 227
144 88 325 310 355 0 341 36 180 152 145 127 125 135 162 167 151 152 148 147 148 156 163 165 166 168 172 176 180 182 185 188 191 196 201 205 208 211 215 216 222 227 230 231 231 230 229 229 230
95 74 284 278 336 323 340 10 340 66 100 90 108 143 155 149 146 148 143 144 150 158 168 168 169 168 169 178 189 189 194 198 199 204 208 210 215 217 220 224 225 231 233 235 235 235 235 235 236
104 152 234 235 283 308 335 359 355 62 80 74 78 100 131 143 147 152 155 160 164 167 174 175 176 172 170 186 188 193 201 205 207 208 215 214 217 226 230 232 235 236 237 239 240 241 243 244 241
187 212 243 269 276 312 334 335 12 106 116 150 140 140 146 149 154 157 163 167 173 172 175 177 180 179 181 191 179 189 204 206 213 214 215 219 224 235 239 238 243 242 243 241 244 243 241 242 240
257 264 267 267 289 312 294 309 344 139 179 163 149 149 153 161 169 169 166 169 169 174 181 179 181 183 191 194 190 193 205 209 214 220 220 218 226 234 238 239 238 235 234 231 231 234 237 241 244
267 267 277 278 312 298 296 290 282 181 140 140 143 148 159 167 172 175 163 164 165 177 183 181 184 188 192 193 196 199 209 214 216 217 221 219 221 229 235 238 237 235 229 224 224 229 236 239 242
269 282 302 307 316 304 306 305 308 116 125 126 127 130 152 166 165 162 156 157 169 178 180 177 185 191 191 192 193 200 209 218 223 224 224 221 224 229 232 236 235 231 226 225 222 224 231 236 238
311 320 322 306 299 287 348 322 285 138 126 124 121 114 104 106 118 141 160 161 166 168 165 169 183 189 195 201 202 202 210 218 224 229 232 228 226 231 234 239 241 235 224 220 221 225 227 233 235
351 358 311 286 260 261 164 247 198 137 131 134 135 127 112 100 94 96 109 125 141 135 133 153 169 182 208 221 233 255 274 280 273 266 262 256 244 237 238 243 248 241 229 220 218 215 216 226 229
4 323 285 290 273 229 159 186 172 148 138 145 146 139 127 114 98 92 94 101 103 101 96 94 89 90 63 353 330 311 300 288 279 274 269 267 265 258 245 246 248 242 234 229 229 222 211 224 231
266 276 289 303 325 87 125 146 165 167 149 154 149 138 126 119 118 112 104 107 109 109 107 113 132 149 152 153 212 261 277 272 273 272 268 268 266 263 251 245 244 238 236 237 230 228 224 223 229
236 280 322 333 354 42 51 83 173 183 158 156 152 142 132 130 137 127 125 124 121 126 138 161 175 182 168 171 201 237 257 264 271 267 268 274 274 270 259 255 249 239 236 237 233 229 235 238 224
319 344 357 353 4 28 11 351 347 352 268 178 159 146 138 136 145 155 155 143 142 165 184 196 205 208 196 191 199 208 225 251 259 271 282 279 278 276 275 263 257 248 242 244 238 227 231 241 213
341 31 41 11 13 27 35 343 337 337 36 102 132 141 150 163 175 185 185 189 182 192 198 198 204 205 206 205 199 226 269 288 290 290 286 281 280 278 272 264 257 251 240 242 241 231 229 240 238
322 3 33 13 22 319 62 302 300 338 61 98 132 153 172 182 184 188 191 198 202 204 196 190 191 196 206 201 198 221 243 262 267 273 278 284 283 278 271 261 251 245 237 238 242 236 227 227 238
253 37 21 346 335 330 337 60 281 10 138 168 162 173 187 188 188 194 200 205 209 203 192 189 185 196 203 188 194 226 261 270 284 291 290 290 287 278 271 261 250 242 234 233 234 234 226 220 221
56 29 3 18 52 344 274 195 280 250 206 186 194 201 205 200 201 206 212 212 213 202 185 177 170 184 171 130 108 84 308 307 311 308 302 297 291 285 274 264 251 240 234 234 232 227 217 212 203
62 66 20 358 8 273 269 137 269 271 193 181 198 213 219 219 215 218 222 219 213 197 190 179 172 177 149 113 85 52 344 321 307 304 302 299 295 287 278 268 252 239 231 227 220 213 214 206 201
170 129 147 203 250 284 328 176 255 262 190 193 203 212 223 230 229 229 224 206 194 190 188 181 180 180 170 150 139 77 348 318 303 301 300 296 292 286 281 270 252 239 230 224 219 222 222 211 206
162 167 167 145 259 301 302 245 270 278 243 215 214 218 225 227 221 209 190 181 182 187 190 188 185 188 188 179 171 168 302 310 310 310 306 302 302 303 305 292 272 261 247 233 223 230 227 206 198
161 158 89 97 178 277 294 294 240 240 242 227 212 206 209 201 181 173 180 184 188 190 193 190 191 196 196 189 183 171 190 287 307 315 319 316 319 334 353 3 354 327 292 262 236 233 224 192 184
313 239 134 142 168 174 261 270 238 220 215 210 210 190 166 140 182 226 217 204 198 193 193 198 205 205 201 199 190 176 190 231 296 316 322 324 335 350 2 2 1 348 329 309 269 219 170 142 120
196 187 147 162 246 199 207 270 295 288 36 67 63 58 42 22 353 316 264 222 209 205 205 207 210 209 209 202 192 190 192 202 253 287 304 320 337 345 353 357 357 348 348 354 28 81 93 105 107